Simultaneous Nadir Overpasses (SNOs) Predictions

Prediction of SNOs between GOES-16 and METOP-B Satellite Orbit:

Table of predicted SNOs for the next 14.0 days since TLE Epoch: 11/18/2023
Index Date Time (GOES-16) GOES-16 Lat,Lon METOP-B Lat,Lon Distance(km) Time Diff (sec)
1 11/19/2023 14:34:59 -0.04, -75.23 0.24, -76.52 146.95 80
2 11/20/2023 14:11:39 -0.04, -75.23 -0.87, -71.52 422.95 80
3 11/22/2023 02:33:17 0.04, -75.23 -0.18, -76.11 101.51 80
4 11/23/2023 02:09:56 0.04, -75.24 0.93, -71.12 468.87 80
5 11/24/2023 14:31:27 -0.04, -75.28 0.08, -75.68 46.85 80
6 11/27/2023 02:27:06 0.03, -75.29 0.05, -75.29 1.99 80
7 11/29/2023 14:27:54 -0.02, -75.35 -0.10, -74.85 56.86 80
8 12/01/2023 02:46:54 0.01, -75.36 -0.87, -79.45 465.63 80
9 12/02/2023 02:23:32 0.01, -75.38 0.20, -74.45 106.01 80
